User: anonymous   Login
Location: Newark
(35.4036°N, 80.4356°W)
Time: 10:57:48
(UTC+00:00)
Language:

PicSat - Orbit

View from above orbital plane
View from above orbital plane
View from above satellite
View from above satellite

Ground track
Ground track

The orbit data is extracted from the following two-line orbital elements,

1 43131U 18004W   19266.18219770  .00001302  00000-0  56159-4 0  9990
2 43131  97.4811 334.0996 0007723 275.3282  84.7074 15.24347188 94215
Epoch (UTC): 23 September 2019 04:22:21
Eccentricity: 0.0007723
inclination: 97.4811°
perigee height: 487 km
apogee height: 498 km
right ascension of ascending node: 334.0996°
argument of perigee: 275.3282°
revolutions per day: 15.24347188
mean anomaly at epoch: 84.7074°
orbit number at epoch: 9421

The dashed part of the orbit path shows where the satellite is in the earth's shadow,  

DLR